SCP
0 0 0 0 0 0 0 0 0 0 0 0 0 0 0 0 0 0 0 0 0 0 0 0 0 0 0 0 0 0 0 0 0 0 0 0 0 0 0 0 0 0 0
0 0 0 0 0 0 0 0 0 0 0 0 0 0 0 0 0 0 0 0 0 0 0 0 0 0 0 0 0 0 0 0 0 0 0 0 0 0 0 0 0 0 0
0 0 0 0 0 0 0 0 0 0 0 0 0 0 0 0 0 0 0 0 0 0 0 0 0 0 0 0 0 0 0 0 0 0 0 0 0 0 0 0 0 0 0
0 0 0 0 0 0 0 0 0 0 0 0 0 0 0 0 0 0 0 0 0 0 0 0 0 0 0 0 0 0 0 0 0 0 0 0 0 0 0 0 0 0 0
0 0 0 0 0 0 0 0 0 0 0 0 0 0 0 0 0 0 0 0 0 0 0 0 0 0 0 0 0 0 0 0 0 0 0 0 0 0 0 0 0 0 0
0 0 0 0 0 0 0 0 0 0 0 0 0 0 0 0 0 0 0 0 0 0 0 0 0 0 0 0 0 0 0 0 0 0 0 0 0 -0 -0 -0 -0 -0 -0
0 0 0 0 0 0 0 0 0 0 0 0 0 0 0 0 0 0 0 0 0 0 0 0 0 0 0 0 0 0 0 0 0 0 0 0 0 0 -0 -0 -0 -0 -0
0 0 0 0 0 0 0 0 0 0 0 0 0 0 0 0 0 0 0 0 0 0 0 0 0 0 0 0 0 0 0 0 0 0 0 0 0 0 0 -0 -0 -0 -0
0 0 0 0 0 0 0 0 0 0 0 0 0 0 0 0 0 0 0 0 0 0 0 0 0 0 0 0 0 0 0 0 0 0 0 0 0 0 0 0 0 -0 -0
0 0 0 0 0 0 0 0 0 0 0 0 0 0 0 0 0 0 0 0 0 0 0 0 0 0 0 0 0 0 0 0 0 0 0 0 0 0 0 0 0 0 0
0 0 0 0 0 0 0 0 0 0 0 0 0 0 0 0 0 0 0 0 0 0 0 0 0 0 0 0 0 0 0 0 0 0 0 0 0 0 0 0 0 0 0
0 0 0 0 0 0 0 0 0 0 0 0 0 0 0 0 0 0 0 0 0 0 0 0 0 0 0 0 0 0 0 0 0 0 0 0 0 0 0 0 0 0 0
0 0 0 0 0 0 0 0 0 0 0 0 0 0 0 0 0 0 0 0 0 0 0 0 0 0 0 0 0 0 0 0 0 0 0 0 0 0 0 0 0 0 0
0 0 0 0 0 0 0 0 0 0 0 0 0 0 0 0 0 0 0 0 0 0 0 0 0 0 0 0 0 0 0 0 0 0 0 0 0 0 0 0 0 0 0
0 0 0 0 0 0 0 0 0 0 0 0 0 0 0 0 0 0 0 0 0 0 0 0 0 0 0 0 0 0 0 0 0 0 0 0 0 0 0 0 0 0 0
0 0 0 0 0 0 0 0 0 0 0 0 0 0 0 0 0 0 0 0 0 0 0 0 0 0 0 0 0 0 0 0 0 0 0 0 0 0 0 0 0 0 0
0 0 0 0 0 0 0 0 0 0 0 0 0 0 0 0 0 0 0 0 0 0 0 0 0 0 0 0 0 0 0 0 0 0 0 0 0 0 0 0 0 0 0
0 0 0 0 0 0 0 0 0 0 0 0 0 0 0 0 0 0 0 0 0 0 0 0 0 0 0 0 0 0 0 0 0 0 0 0 0 0 0 0 0 0 0
0 0 0 0 0 0 0 0 0 0 0 0 0 0 0 0 0 0 0 0 0 0 0 0 0 0 0 0 0 0 0 0 0 0 0 0 0 0 0 0 0 0 0
0 0 0 0 0 0 0 0 0 0 0 0 0 0 0 0 0 0 0 0 0 0 0 0 0 0 0 0 0 0 0 0 0 0 0 0 0 0 0 0 0 0 0
0 0 0 0 0 0 0 0 0 0 0 0 0 0 0 0 0 0 0 0 0 0 0 0 0 0 0 0 0 0 0 0 0 0 0 0 0 0 0 0 0 0 0
-0 0 0 0 0 0 0 0 0 0 0 0 0 0 0 0 0 0 0 0 0 0 0 0 0 0 0 0 0 0 0 0 0 0 0 0 0 0 0 0 0 0 0
-0 -0 -0 0 0 0 0 0 0 0 0 0 0 0 0 0 0 0 0 0 0 0 0 0 0 0 0 0 0 0 0 0 0 0 0 0 0 0 0 0 0 0 0
-0 -0 -0 -0 -0 0 0 0 0 0 0 0 0 0 0 0 0 0 0 0 0 0 0 0 0 0 0 0 0 0 0 0 0 0 0 0 0 0 0 0 0 0 0
-0 -0 -0 -0 0 0 0 -0 -0 0 0 0 0 0 0 0 0 0 0 0 0 0 0 0 0 0 0 0 0 0 0 0 0 0 0 0 0 0 0 0 0 0 0
-0 -0 0 -0 -0 0 -0 -0 -0 0 0 0 0 0 0 0 0 0 0 0 0 0 0 0 0 0 0 0 0 0 0 0 0 0 0 0 0 0 0 0 0 0 0
Wind_Speed_500mb
34 32 29 29 25 25 25 28 29 30 31 31 30 29 27 27 26 25 23 23 21 22 22 20 18 18 15 9 11 16 17 8 10 11 10 11 14 16 16 14 12 11 11
35 35 33 33 32 30 27 30 33 35 36 38 35 34 32 31 30 30 27 27 27 27 28 25 23 23 21 17 14 16 22 21 16 11 10 10 11 13 15 14 12 8 5
42 43 40 39 35 33 34 35 37 39 41 41 41 38 38 35 35 34 32 32 31 31 31 30 28 28 27 24 21 17 19 22 28 27 26 24 22 18 18 15 13 9 3
47 47 49 46 40 40 41 41 40 43 44 44 44 42 42 43 42 40 40 39 38 36 36 36 34 32 32 31 29 25 23 24 26 28 32 28 30 27 25 23 21 16 7
49 50 52 50 46 47 49 48 47 48 49 47 48 49 48 50 49 47 46 43 42 41 42 40 37 36 34 34 33 32 29 30 30 29 29 32 27 28 28 28 24 22 12
54 54 54 53 50 51 55 54 55 53 55 52 53 57 56 55 55 54 52 47 46 46 47 46 43 39 36 36 34 35 32 29 31 31 32 31 29 28 29 29 30 26 23
59 60 60 57 52 55 57 56 57 60 61 56 59 65 64 63 62 59 54 52 49 49 51 49 47 42 38 37 37 34 30 27 33 35 31 34 37 36 33 43 41 34 28
64 63 65 66 61 59 61 61 59 65 65 61 60 65 65 66 61 48 45 42 35 31 37 37 39 39 39 40 35 31 34 36 37 45 40 39 40 36 33 37 42 34 34
68 69 69 69 68 67 69 69 65 65 70 69 66 59 27 22 32 33 30 35 38 41 41 36 35 36 41 40 38 42 46 45 45 43 41 45 41 39 34 29 29 41 44
65 67 70 73 74 76 75 76 74 72 70 75 77 76 76 79 65 56 41 31 35 48 49 42 42 41 35 38 45 52 50 50 50 47 45 41 41 38 36 33 32 39 41
55 57 59 63 69 74 77 82 85 82 80 80 82 82 81 80 81 85 83 79 68 59 49 47 40 43 45 43 46 50 49 54 54 51 52 47 44 44 43 44 39 36 43
59 52 52 56 59 65 70 74 80 86 86 88 88 88 87 81 74 73 78 93 87 90 79 68 58 55 51 49 48 51 53 54 56 52 53 52 46 45 42 42 42 42 43
66 64 60 57 53 52 56 61 70 75 78 86 89 94 96 96 90 93 91 99 93 95 88 85 76 62 55 54 51 55 58 53 49 50 51 53 50 51 49 45 47 49 45
54 58 63 61 54 48 48 52 61 67 70 78 82 88 94 97 95 96 98 91 88 86 91 95 84 76 55 54 57 57 60 56 56 54 54 53 54 50 48 51 52 51 50
49 54 58 62 61 55 52 50 57 66 74 77 81 83 90 93 95 98 97 98 91 69 81 88 78 76 57 48 52 56 58 57 59 56 56 58 55 57 54 53 53 50 55
40 44 48 57 62 64 57 49 56 65 68 75 85 87 90 91 92 96 99 97 99 95 92 91 87 80 68 50 44 52 59 57 60 64 62 57 62 60 54 51 47 45 46
30 35 40 48 53 56 59 62 60 66 75 76 77 80 84 87 97 98 97 97 95 93 99 104 92 85 81 64 58 57 59 59 57 56 57 59 59 61 58 54 49 44 44
34 38 41 42 44 47 51 58 67 58 67 76 82 96 84 81 88 91 93 98 97 93 96 95 87 87 82 77 74 66 69 66 65 61 64 63 64 66 66 59 53 52 48
46 47 47 49 51 51 53 53 60 62 67 72 82 83 90 91 98 99 98 98 96 96 98 99 88 87 87 78 78 78 75 74 73 71 68 69 61 61 62 62 56 54 47
62 60 59 59 60 61 62 61 60 61 67 73 79 85 97 93 96 102 103 101 99 102 100 99 92 93 90 85 82 86 83 84 78 73 71 72 66 62 63 66 56 49 47
80 80 76 70 69 68 67 65 65 69 71 73 76 81 96 101 106 98 103 105 103 105 105 102 100 98 99 93 89 92 88 84 79 76 73 72 65 64 64 58 49 48 48
97 94 91 88 83 78 73 73 69 72 76 80 84 87 91 95 107 105 107 109 98 105 108 104 107 108 110 114 99 96 96 90 81 80 74 70 66 65 62 53 48 48 49
99 99 97 95 96 95 91 84 78 78 83 87 90 92 95 100 104 104 115 111 107 94 117 119 113 117 114 109 106 105 105 90 87 82 76 75 67 60 62 55 51 50 45
94 97 98 99 104 105 104 104 105 96 90 94 96 100 101 101 102 107 110 112 117 106 106 136 134 128 112 109 96 99 95 81 74 78 76 72 65 61 60 56 54 53 49
94 98 102 106 109 112 112 114 112 112 114 107 102 103 107 109 111 102 101 111 119 114 111 119 121 131 135 125 103 83 86 74 79 89 85 76 72 65 58 54 54 55 53
86 89 95 99 107 115 119 122 114 114 120 119 120 111 106 109 111 108 101 105 113 129 122 122 115 128 140 141 112 97 92 84 81 88 88 82 77 68 50 57 58 60 61
Wind_Direction_500mb
244 243 246 247 246 244 244 250 252 253 256 260 261 265 268 273 274 276 278 280 282 284 287 290 295 300 300 283 271 291 297 318 5 4 335 348 10 15 18 19 28 44 57
250 246 249 249 250 253 255 255 258 257 258 260 262 267 269 269 270 270 271 274 277 280 283 283 283 283 283 280 263 264 280 287 291 287 306 344 5 10 1 0 9 8 40
256 256 258 256 255 257 257 255 258 259 261 264 267 267 269 270 269 270 272 272 271 273 277 280 280 277 273 270 264 256 263 276 289 290 285 290 298 307 325 333 332 304 268
259 260 261 262 262 260 261 259 260 263 265 267 271 271 270 270 268 268 268 268 270 273 273 275 276 273 269 264 258 256 256 259 269 280 286 282 279 284 296 298 297 279 236
262 263 264 264 263 264 265 266 265 266 267 269 273 273 269 268 269 270 268 268 270 271 273 273 271 267 263 260 256 256 258 264 266 269 270 279 278 276 281 281 289 278 272
264 262 264 265 266 267 267 268 269 269 271 272 273 273 273 272 271 270 271 270 270 269 270 270 267 261 258 256 257 256 262 265 267 272 269 271 275 274 266 272 278 278 273
263 264 264 265 265 267 269 270 272 271 270 273 278 277 276 276 274 274 275 274 271 269 266 264 264 257 255 256 255 255 256 263 277 274 273 265 271 269 269 260 263 264 258
263 263 264 267 266 266 268 268 269 273 273 272 270 280 292 289 285 280 274 271 267 262 263 264 261 258 257 259 247 252 265 266 264 267 271 276 284 280 273 261 259 258 255
264 264 266 266 268 267 268 271 269 269 272 275 270 263 270 278 291 294 280 275 273 272 274 265 260 259 260 248 249 259 262 265 263 263 262 262 265 277 277 268 258 254 250
269 269 271 272 272 272 271 273 274 271 270 269 271 266 263 263 271 288 285 284 273 279 282 270 262 271 249 245 257 262 261 260 259 256 256 255 264 266 273 266 267 258 250
281 279 277 276 277 277 278 275 275 274 272 271 269 270 271 268 267 262 276 282 282 280 277 271 264 269 252 250 257 260 259 264 256 252 252 256 259 261 263 268 269 259 252
288 290 291 287 286 284 285 285 282 279 277 273 271 269 268 264 265 264 266 275 279 283 283 280 273 269 257 252 257 260 262 264 261 254 251 253 255 261 268 267 265 264 261
293 295 293 292 290 291 290 290 288 285 283 279 276 272 270 268 268 268 267 271 274 279 280 281 276 272 259 252 254 256 262 269 257 249 249 251 253 263 266 267 269 270 256
304 304 302 297 291 293 295 298 296 291 288 283 281 277 275 273 271 269 268 266 267 271 277 275 277 276 268 253 254 256 257 261 255 253 255 254 260 263 265 270 270 266 253
295 298 298 299 301 299 297 296 294 298 293 290 286 283 279 277 274 271 268 266 260 260 267 273 272 277 271 246 254 256 255 258 256 255 255 260 264 263 265 268 271 266 250
286 283 286 291 294 298 294 291 289 289 288 291 290 285 283 281 279 275 272 269 264 259 257 266 266 270 269 261 258 254 255 258 254 253 257 256 265 268 268 272 275 271 262
321 312 300 287 286 290 293 291 281 284 290 290 287 285 287 288 282 279 275 272 264 261 254 268 267 264 260 257 251 257 248 254 254 250 249 256 266 270 273 272 268 262 261
324 317 309 304 301 295 288 285 286 286 288 286 288 282 283 284 285 281 278 273 267 262 255 258 261 256 252 261 256 255 254 255 254 250 249 258 262 266 269 272 269 258 256
328 322 314 307 302 297 292 287 283 286 284 287 287 281 283 283 279 276 273 269 268 265 258 254 260 255 249 253 250 250 247 247 250 250 252 255 260 264 269 273 268 255 254
326 322 316 312 306 301 297 295 293 287 281 279 277 277 278 275 274 275 270 270 268 258 256 253 252 251 247 250 251 247 246 246 246 250 248 254 259 263 273 274 264 242 238
315 315 312 307 305 302 298 296 294 292 288 283 279 276 273 274 273 271 270 269 266 261 255 251 247 245 243 242 243 246 245 248 244 245 249 248 255 262 272 268 259 239 232
313 310 309 307 302 299 298 296 296 292 288 285 282 277 274 275 274 275 272 270 269 264 259 251 245 245 248 245 251 243 244 236 231 240 245 243 250 259 267 262 246 237 235
311 310 309 307 303 300 299 297 296 294 290 285 283 281 279 277 277 278 275 270 268 265 267 259 252 250 251 253 250 244 241 240 244 244 241 244 244 255 259 252 236 236 235
315 312 309 307 303 299 299 299 299 296 288 285 283 280 279 277 274 271 269 271 268 264 260 259 256 257 255 257 253 256 242 236 243 240 238 231 237 243 253 239 232 230 228
319 316 313 310 307 301 301 301 302 299 294 288 283 280 279 278 276 274 268 265 267 267 264 264 263 260 255 254 250 243 231 224 227 229 228 229 234 233 235 228 227 224 224
319 317 313 311 308 304 301 303 304 301 295 292 288 283 278 276 276 276 269 262 262 262 261 262 265 259 247 249 241 233 229 222 225 225 223 221 224 220 207 215 217 216 214
Wind_Speed_850mb
34 32 29 29 25 25 25 28 29 30 31 31 30 29 27 27 26 25 23 23 21 22 22 20 18 18 15 9 11 16 17 8 10 11 10 11 14 16 16 14 12 11 11
35 35 33 33 32 30 27 30 33 35 36 38 35 34 32 31 30 30 27 27 27 27 28 25 23 23 21 17 14 16 22 21 16 11 10 10 11 13 15 14 12 8 5
42 43 40 39 35 33 34 35 37 39 41 41 41 38 38 35 35 34 32 32 31 31 31 30 28 28 27 24 21 17 19 22 28 27 26 24 22 18 18 15 13 9 3
47 47 49 46 40 40 41 41 40 43 44 44 44 42 42 43 42 40 40 39 38 36 36 36 34 32 32 31 29 25 23 24 26 28 32 28 30 27 25 23 21 16 7
49 50 52 50 46 47 49 48 47 48 49 47 48 49 48 50 49 47 46 43 42 41 42 40 37 36 34 34 33 32 29 30 30 29 29 32 27 28 28 28 24 22 12
54 54 54 53 50 51 55 54 55 53 55 52 53 57 56 55 55 54 52 47 46 46 47 46 43 39 36 36 34 35 32 29 31 31 32 31 29 28 29 29 30 26 23
59 60 60 57 52 55 57 56 57 60 61 56 59 65 64 63 62 59 54 52 49 49 51 49 47 42 38 37 37 34 30 27 33 35 31 34 37 36 33 43 41 34 28
64 63 65 66 61 59 61 61 59 65 65 61 60 65 65 66 61 48 45 42 35 31 37 37 39 39 39 40 35 31 34 36 37 45 40 39 40 36 33 37 42 34 34
68 69 69 69 68 67 69 69 65 65 70 69 66 59 27 22 32 33 30 35 38 41 41 36 35 36 41 40 38 42 46 45 45 43 41 45 41 39 34 29 29 41 44
65 67 70 73 74 76 75 76 74 72 70 75 77 76 76 79 65 56 41 31 35 48 49 42 42 41 35 38 45 52 50 50 50 47 45 41 41 38 36 33 32 39 41
55 57 59 63 69 74 77 82 85 82 80 80 82 82 81 80 81 85 83 79 68 59 49 47 40 43 45 43 46 50 49 54 54 51 52 47 44 44 43 44 39 36 43
59 52 52 56 59 65 70 74 80 86 86 88 88 88 87 81 74 73 78 93 87 90 79 68 58 55 51 49 48 51 53 54 56 52 53 52 46 45 42 42 42 42 43
66 64 60 57 53 52 56 61 70 75 78 86 89 94 96 96 90 93 91 99 93 95 88 85 76 62 55 54 51 55 58 53 49 50 51 53 50 51 49 45 47 49 45
54 58 63 61 54 48 48 52 61 67 70 78 82 88 94 97 95 96 98 91 88 86 91 95 84 76 55 54 57 57 60 56 56 54 54 53 54 50 48 51 52 51 50
49 54 58 62 61 55 52 50 57 66 74 77 81 83 90 93 95 98 97 98 91 69 81 88 78 76 57 48 52 56 58 57 59 56 56 58 55 57 54 53 53 50 55
40 44 48 57 62 64 57 49 56 65 68 75 85 87 90 91 92 96 99 97 99 95 92 91 87 80 68 50 44 52 59 57 60 64 62 57 62 60 54 51 47 45 46
30 35 40 48 53 56 59 62 60 66 75 76 77 80 84 87 97 98 97 97 95 93 99 104 92 85 81 64 58 57 59 59 57 56 57 59 59 61 58 54 49 44 44
34 38 41 42 44 47 51 58 67 58 67 76 82 96 84 81 88 91 93 98 97 93 96 95 87 87 82 77 74 66 69 66 65 61 64 63 64 66 66 59 53 52 48
46 47 47 49 51 51 53 53 60 62 67 72 82 83 90 91 98 99 98 98 96 96 98 99 88 87 87 78 78 78 75 74 73 71 68 69 61 61 62 62 56 54 47
62 60 59 59 60 61 62 61 60 61 67 73 79 85 97 93 96 102 103 101 99 102 100 99 92 93 90 85 82 86 83 84 78 73 71 72 66 62 63 66 56 49 47
80 80 76 70 69 68 67 65 65 69 71 73 76 81 96 101 106 98 103 105 103 105 105 102 100 98 99 93 89 92 88 84 79 76 73 72 65 64 64 58 49 48 48
97 94 91 88 83 78 73 73 69 72 76 80 84 87 91 95 107 105 107 109 98 105 108 104 107 108 110 114 99 96 96 90 81 80 74 70 66 65 62 53 48 48 49
99 99 97 95 96 95 91 84 78 78 83 87 90 92 95 100 104 104 115 111 107 94 117 119 113 117 114 109 106 105 105 90 87 82 76 75 67 60 62 55 51 50 45
94 97 98 99 104 105 104 104 105 96 90 94 96 100 101 101 102 107 110 112 117 106 106 136 134 128 112 109 96 99 95 81 74 78 76 72 65 61 60 56 54 53 49
94 98 102 106 109 112 112 114 112 112 114 107 102 103 107 109 111 102 101 111 119 114 111 119 121 131 135 125 103 83 86 74 79 89 85 76 72 65 58 54 54 55 53
86 89 95 99 107 115 119 122 114 114 120 119 120 111 106 109 111 108 101 105 113 129 122 122 115 128 140 141 112 97 92 84 81 88 88 82 77 68 50 57 58 60 61
Wind_Direction_850mb
244 243 246 247 246 244 244 250 252 253 256 260 261 265 268 273 274 276 278 280 282 284 287 290 295 300 300 283 271 291 297 318 5 4 335 348 10 15 18 19 28 44 57
250 246 249 249 250 253 255 255 258 257 258 260 262 267 269 269 270 270 271 274 277 280 283 283 283 283 283 280 263 264 280 287 291 287 306 344 5 10 1 0 9 8 40
256 256 258 256 255 257 257 255 258 259 261 264 267 267 269 270 269 270 272 272 271 273 277 280 280 277 273 270 264 256 263 276 289 290 285 290 298 307 325 333 332 304 268
259 260 261 262 262 260 261 259 260 263 265 267 271 271 270 270 268 268 268 268 270 273 273 275 276 273 269 264 258 256 256 259 269 280 286 282 279 284 296 298 297 279 236
262 263 264 264 263 264 265 266 265 266 267 269 273 273 269 268 269 270 268 268 270 271 273 273 271 267 263 260 256 256 258 264 266 269 270 279 278 276 281 281 289 278 272
264 262 264 265 266 267 267 268 269 269 271 272 273 273 273 272 271 270 271 270 270 269 270 270 267 261 258 256 257 256 262 265 267 272 269 271 275 274 266 272 278 278 273
263 264 264 265 265 267 269 270 272 271 270 273 278 277 276 276 274 274 275 274 271 269 266 264 264 257 255 256 255 255 256 263 277 274 273 265 271 269 269 260 263 264 258
263 263 264 267 266 266 268 268 269 273 273 272 270 280 292 289 285 280 274 271 267 262 263 264 261 258 257 259 247 252 265 266 264 267 271 276 284 280 273 261 259 258 255
264 264 266 266 268 267 268 271 269 269 272 275 270 263 270 278 291 294 280 275 273 272 274 265 260 259 260 248 249 259 262 265 263 263 262 262 265 277 277 268 258 254 250
269 269 271 272 272 272 271 273 274 271 270 269 271 266 263 263 271 288 285 284 273 279 282 270 262 271 249 245 257 262 261 260 259 256 256 255 264 266 273 266 267 258 250
281 279 277 276 277 277 278 275 275 274 272 271 269 270 271 268 267 262 276 282 282 280 277 271 264 269 252 250 257 260 259 264 256 252 252 256 259 261 263 268 269 259 252
288 290 291 287 286 284 285 285 282 279 277 273 271 269 268 264 265 264 266 275 279 283 283 280 273 269 257 252 257 260 262 264 261 254 251 253 255 261 268 267 265 264 261
293 295 293 292 290 291 290 290 288 285 283 279 276 272 270 268 268 268 267 271 274 279 280 281 276 272 259 252 254 256 262 269 257 249 249 251 253 263 266 267 269 270 256
304 304 302 297 291 293 295 298 296 291 288 283 281 277 275 273 271 269 268 266 267 271 277 275 277 276 268 253 254 256 257 261 255 253 255 254 260 263 265 270 270 266 253
295 298 298 299 301 299 297 296 294 298 293 290 286 283 279 277 274 271 268 266 260 260 267 273 272 277 271 246 254 256 255 258 256 255 255 260 264 263 265 268 271 266 250
286 283 286 291 294 298 294 291 289 289 288 291 290 285 283 281 279 275 272 269 264 259 257 266 266 270 269 261 258 254 255 258 254 253 257 256 265 268 268 272 275 271 262
321 312 300 287 286 290 293 291 281 284 290 290 287 285 287 288 282 279 275 272 264 261 254 268 267 264 260 257 251 257 248 254 254 250 249 256 266 270 273 272 268 262 261
324 317 309 304 301 295 288 285 286 286 288 286 288 282 283 284 285 281 278 273 267 262 255 258 261 256 252 261 256 255 254 255 254 250 249 258 262 266 269 272 269 258 256
328 322 314 307 302 297 292 287 283 286 284 287 287 281 283 283 279 276 273 269 268 265 258 254 260 255 249 253 250 250 247 247 250 250 252 255 260 264 269 273 268 255 254
326 322 316 312 306 301 297 295 293 287 281 279 277 277 278 275 274 275 270 270 268 258 256 253 252 251 247 250 251 247 246 246 246 250 248 254 259 263 273 274 264 242 238
315 315 312 307 305 302 298 296 294 292 288 283 279 276 273 274 273 271 270 269 266 261 255 251 247 245 243 242 243 246 245 248 244 245 249 248 255 262 272 268 259 239 232
313 310 309 307 302 299 298 296 296 292 288 285 282 277 274 275 274 275 272 270 269 264 259 251 245 245 248 245 251 243 244 236 231 240 245 243 250 259 267 262 246 237 235
311 310 309 307 303 300 299 297 296 294 290 285 283 281 279 277 277 278 275 270 268 265 267 259 252 250 251 253 250 244 241 240 244 244 241 244 244 255 259 252 236 236 235
315 312 309 307 303 299 299 299 299 296 288 285 283 280 279 277 274 271 269 271 268 264 260 259 256 257 255 257 253 256 242 236 243 240 238 231 237 243 253 239 232 230 228
319 316 313 310 307 301 301 301 302 299 294 288 283 280 279 278 276 274 268 265 267 267 264 264 263 260 255 254 250 243 231 224 227 229 228 229 234 233 235 228 227 224 224
319 317 313 311 308 304 301 303 304 301 295 292 288 283 278 276 276 276 269 262 262 262 261 262 265 259 247 249 241 233 229 222 225 225 223 221 224 220 207 215 217 216 214